This is the latest recevied weather packets stored in our database for station/object AJ5AG. If no packets are shown the sender has not sent any weather packets the latest 10 day(s).
| Time | Temp. | Humidity | Pressure | Rain* | Wind** | Luminosity | Snow |
|---|---|---|---|---|---|---|---|
| 1777578493 | 19.44° C | 96% | 1014.7 hPa | 0 mm | - | 91 W/m² | - |
| 1777578188 | 19.44° C | 96% | 1014.7 hPa | 0 mm | - | 66 W/m² | - |
| 1777577884 | 19.44° C | 95% | 1014.8 hPa | 0 mm | - | 53 W/m² | - |
| 1777577580 | 19.44° C | 96% | 1014.5 hPa | 0 mm | - | 56 W/m² | - |
| 1777577277 | 19.44° C | 96% | 1014.4 hPa | 0 mm | - | 54 W/m² | - |
| 1777576973 | 19.44° C | 96% | 1014.5 hPa | 0 mm | - | 77 W/m² | - |
| 1777576669 | 19.44° C | 96% | 1014.4 hPa | 0 mm | - | 131 W/m² | - |
| 1777576369 | 19.44° C | 96% | 1014.8 hPa | 0 mm | - | 86 W/m² | - |
| 1777576066 | 19.44° C | 96% | 1014.4 hPa | 0 mm | - | 113 W/m² | - |
| 1777575762 | 19.44° C | 96% | 1014.4 hPa | 0 mm | - | 68 W/m² | - |
| 1777575458 | 19.44° C | 96% | 1014.2 hPa | 0 mm | - | 47 W/m² | - |
| 1777575154 | 19.44° C | 96% | 1014.3 hPa | 0 mm | - | 65 W/m² | - |
| 1777574850 | 20° C | 96% | 1014.7 hPa | 1.27 mm | - | 55 W/m² | - |
| 1777574548 | 20° C | 96% | 1015.3 hPa | 1.27 mm | - | 41 W/m² | - |
| 1777574243 | 20° C | 96% | 1015.2 hPa | 0 mm | - | 65 W/m² | - |
| 1777573939 | 20° C | 96% | 1015.3 hPa | 0 mm | - | 54 W/m² | - |
| 1777573634 | 20° C | 96% | 1015.5 hPa | 0 mm | - | 36 W/m² | - |
| 1777573330 | 20° C | 96% | 1015.1 hPa | 0 mm | - | 51 W/m² | - |
| 1777573026 | 20° C | 96% | 1015.1 hPa | 0 mm | - | 44 W/m² | - |
| 1777572723 | 20° C | 95% | 1014.7 hPa | 0 mm | - | 36 W/m² | - |
| 1777572418 | 20° C | 95% | 1014.9 hPa | 0 mm | - | 35 W/m² | - |
| 1777572115 | 20° C | 95% | 1014.9 hPa | 0 mm | - | 49 W/m² | - |
| 1777571814 | 20° C | 95% | 1015.1 hPa | 0 mm | - | 44 W/m² | - |
| 1777571511 | 20° C | 95% | 1014.7 hPa | 0 mm | - | 48 W/m² | - |
| 1777571208 | 20° C | 95% | 1014.9 hPa | 0 mm | - | 47 W/m² | - |
* Rain latest hour (hover to see other rain measurements)
** Current wind speed in m/s (hover to see current wind gust speed)